Location: Unspecified
(50.7693°N, 0.0000°E)
Time: 07:08:34
(UTC+00:00)

Transit 2A - Pass Details

Date: 22 August 2020
Orbit: 591 x 967 km, 66.7° (Epoch: 20 September)

Event Time Altitude Azimuth Distance (km) Brightness Sun altitude
Rises 20:50:51 0° 288° (WNW) 3,604 10.8 -15.2°
Reaches altitude 10° 20:54:10 10° 305° (NW) 2,693 10.2 -15.6°
Maximum altitude 20:58:40 20° 351° (N) 2,096 8.9 -16.1°
Drops below altitude 10° 21:03:12 10° 36° (NE) 2,710 8.9 -16.6°
Sets 21:06:33 0° 53° (NE) 3,634 9.4 -17.0°
